EW5546 Weather Reports


time (UTC)temp
C
wind
direction
speed
KPH
gust
KPH
rain 1hr
cm
rain 24hr
cm
rain mn
cm
humidity
%
barometer
mb
20260903131023 24 129 3.2 4.8 0.00 0.00 0.00 40 1014.9
20260903130025 24 353 3.2 8.0 0.00 0.00 0.00 40 1015.0
20260903124017 23 60 3.2 6.4 0.00 0.00 0.00 40 1015.0
20260903123024 23 218 3.2 4.8 0.00 0.00 0.00 41 1015.0
20260903122022 23 76 1.6 4.8 0.00 0.00 0.00 42 1015.0
20260903121024 23 79 3.2 4.8 0.00 0.00 0.00 41 1015.0
20260903120018 22 44 1.6 3.2 0.00 0.00 0.00 42 1015.0
20260903115022 22 68 1.6 6.4 0.00 0.00 0.00 42 1015.0
20260903114022 22 79 3.2 6.4 0.00 0.00 0.00 42 1015.0
20260903113016 22 302 3.2 6.4 0.00 0.00 0.00 42 1015.0
20260903112022 22 92 3.2 8.0 0.00 0.00 0.00 42 1016.1
20260903111015 23 193 1.6 4.8 0.00 0.00 0.00 43 1016.1
20260903110015 22 206 1.6 3.2 0.00 0.00 0.00 43 1016.1
20260903105022 22 219 1.6 3.2 0.00 0.00 0.00 43 1016.1
20260903104023 22 224 3.2 4.8 0.00 0.00 0.00 43 1016.1
20260903103040 22 77 3.2 4.8 0.00 0.00 0.00 43 1016.1
20260903102024 22 223 3.2 3.2 0.00 0.00 0.00 44 1016.1
20260903101022 22 194 1.6 3.2 0.00 0.00 0.00 45 1016.1
20260903100022 22 249 1.6 3.2 0.00 0.00 0.00 45 1016.1
20260903095042 22 3 3.2 6.4 0.00 0.00 0.00 46 1016.1
20260903094022 21 23 3.2 4.8 0.00 0.00 0.00 47 1016.1
20260903093042 21 45 1.6 4.8 0.00 0.00 0.00 48 1016.1
20260903092024 21 34 1.6 6.4 0.00 0.00 0.00 48 1016.1
20260903091022 21 201 1.6 3.2 0.00 0.00 0.00 49 1016.6
20260903090118 21 218 3.2 3.2 0.00 0.00 0.00 48 1017.1
20260903085042 21 218 1.6 3.2 0.00 0.00 0.00 51 1017.1
20260903084023 21 253 1.6 3.2 0.00 0.00 0.00 53 1017.1
20260903083043 20 268 1.6 3.2 0.00 0.00 0.00 54 1017.1
20260903082021 20 198 1.6 1.6 0.00 0.00 0.00 55 1017.1
20260903081022 20 248 0.0 1.6 0.00 0.00 0.00 56 1016.6
20260903080042 20 58 1.6 3.2 0.00 0.00 0.00 57 1016.1
20260903075026 20 248 0.0 1.6 0.00 0.00 0.00 59 1016.1
20260903074025 20 210 1.6 3.2 0.00 0.00 0.00 59 1016.1
20260903073022 20 175 3.2 3.2 0.00 0.00 0.00 59 1016.1
20260903072019 19 225 0.0 1.6 0.00 0.00 0.00 61 1016.1
20260903071026 19 214 0.0 1.6 0.00 0.00 0.00 61 1016.1
20260903070018 18 203 0.0 3.2 0.00 0.00 0.00 62 1016.1
20260903065017 18 225 0.0 1.6 0.00 0.00 0.00 63 1016.1
20260903064031 18 203 0.0 1.6 0.00 0.00 0.00 63 1016.1
20260903063022 18 217 1.6 1.6 0.00 0.00 0.00 64 1016.1
20260903062045 18 248 0.0 1.6 0.00 0.00 0.00 64 1016.1
20260903061022 17 0.0 0.0 0.00 0.00 0.00 65 1016.1
20260903060022 17 203 0.0 1.6 0.00 0.00 0.00 67 1016.1
20260903055036 17 0.0 0.0 0.00 0.00 0.00 68 1017.1
20260903054022 17 0.0 0.0 0.00 0.00 0.00 69 1017.1
20260903053023 16 0.0 0.0 0.00 0.00 0.00 71 1017.1
20260903052023 16 0.0 0.0 0.00 0.00 0.00 71 1016.1
20260903051022 16 0.0 0.0 0.00 0.00 0.00 70 1016.6
20260903050022 16 0.0 0.0 0.00 0.00 0.00 70 1017.1
20260903045015 16 0.0 0.0 0.00 0.00 0.00 70 1017.1
20260903044024 16 0.0 0.0 0.00 0.00 0.00 69 1017.1
20260903043022 16 0.0 0.0 0.00 0.00 0.00 69 1017.1
20260903042022 16 0.0 0.0 0.00 0.00 0.00 69 1017.1
20260903041044 16 0.0 0.0 0.00 0.00 0.00 69 1017.1
20260903040023 16 0.0 0.0 0.00 0.00 0.00 69 1017.1
20260903035106 16 0.0 0.0 0.00 0.00 0.00 68 1017.1
20260903034022 16 0.0 0.0 0.00 0.00 0.00 68 1017.1
20260903033022 16 0.0 0.0 0.00 0.00 0.00 69 1017.1
20260903032022 16 0.0 0.0 0.00 0.00 0.00 70 1017.1
20260903031025 16 0.0 0.0 0.00 0.00 0.00 69 1017.1
20260903030024 16 0.0 0.0 0.00 0.00 0.00 69 1017.1
20260903025022 16 0.0 0.0 0.00 0.00 0.00 69 1017.1
20260903024046 16 0.0 0.0 0.00 0.00 0.00 69 1017.1
20260903023022 16 0.0 0.0 0.00 0.00 0.00 68 1017.1
20260903022022 16 0.0 0.0 0.00 0.00 0.00 70 1017.1
20260903021018 16 0.0 0.0 0.00 0.00 0.00 69 1017.1
20260903020043 16 0.0 0.0 0.00 0.00 0.00 69 1017.1
20260903015025 16 0.0 0.0 0.00 0.00 0.00 69 1017.1
20260903014022 16 0.0 0.0 0.00 0.00 0.00 69 1017.1
20260903013022 16 0.0 0.0 0.00 0.00 0.00 70 1017.1
20260903012022 16 0.0 0.0 0.00 0.00 0.00 70 1017.1
20260903011022 16 0.0 0.0 0.00 0.00 0.00 70 1017.1
20260903010052 16 0.0 0.0 0.00 0.00 0.00 70 1017.1
20260903004023 16 0.0 0.0 0.00 0.00 0.00 70 1017.1
20260903003057 16 0.0 0.0 0.00 0.00 0.00 69 1017.1
20260903002022 16 0.0 0.0 0.00 0.00 0.00 69 1017.1
20260903001023 16 0.0 0.0 0.00 0.00 0.00 68 1017.1
20260903000033 16 0.0 0.0 0.00 0.00 0.00 68 1017.1
20260902235024 16 0.0 0.0 0.00 0.00 0.00 68 1017.1
20260902234025 16 0.0 0.0 0.00 0.00 0.00 68 1017.1
20260902233023 16 0.0 0.0 0.00 0.00 0.00 67 1017.1
20260902232024 16 0.0 0.0 0.00 0.00 0.00 67 1017.1
20260902231026 -17 0.0 0.0 0.00 0.00 0.00 1017.1
20260902225023 -17 0.0 0.0 0.00 0.00 0.00 1017.1
20260902224024 16 0.0 0.0 0.00 0.00 0.00 67 1017.1
20260902223023 16 0.0 0.0 0.00 0.00 0.00 67 1017.1
20260902222102 16 0.0 0.0 0.00 0.00 0.00 66 1017.1
20260902221023 16 0.0 0.0 0.00 0.00 0.00 66 1017.1
20260902220043 16 0.0 0.0 0.00 0.00 0.00 65 1017.1
20260902215044 16 0.0 0.0 0.00 0.00 0.00 65 1017.1
20260902214028 16 0.0 0.0 0.00 0.00 0.00 64 1017.1
20260902213024 16 0.0 0.0 0.00 0.00 0.00 63 1017.1
20260902212024 16 0.0 0.0 0.00 0.00 0.00 63 1017.1
20260902211027 16 0.0 0.0 0.00 0.00 0.00 62 1017.1
20260902210024 16 0.0 0.0 0.00 0.00 0.00 62 1017.1
20260902205025 17 0.0 0.0 0.00 0.00 0.00 61 1017.1
20260902204105 17 0.0 0.0 0.00 0.00 0.00 60 1017.1
20260902203026 17 0.0 0.0 0.00 0.00 0.00 60 1017.1
20260902202024 17 0.0 0.0 0.00 0.00 0.00 59 1017.1
20260902201022 17 0.0 0.0 0.00 0.00 0.00 59 1017.1
20260902200024 17 0.0 0.0 0.00 0.00 0.00 58 1017.1
20260902195024 17 0.0 0.0 0.00 0.00 0.00 57 1017.1
20260902194045 17 0.0 0.0 0.00 0.00 0.00 56 1017.1
20260902193037 17 0.0 0.0 0.00 0.00 0.00 55 1017.1
20260902192022 -17 0.0 0.0 0.00 0.00 0.00 1017.1
20260902191018 18 0.0 0.0 0.00 0.00 0.00 53 1017.1
20260902190035 18 0.0 0.0 0.00 0.00 0.00 53 1017.1
20260902185022 18 0.0 0.0 0.00 0.00 0.00 52 1017.1
20260902184022 18 0.0 0.0 0.00 0.00 0.00 51 1017.1
20260902183022 18 0.0 0.0 0.00 0.00 0.00 50 1017.1
20260902182023 18 0.0 0.0 0.00 0.10 0.00 50 1017.1
20260902181023 19 0.0 0.0 0.00 0.10 0.00 49 1017.1
20260902180104 19 0.0 0.0 0.00 0.10 0.00 49 1017.1
20260902175023 20 0.0 0.0 0.00 0.10 0.00 48 1017.1
20260902174018 20 0.0 0.0 0.00 0.10 0.00 47 1017.1
20260902173021 20 0.0 0.0 0.00 0.10 0.00 47 1017.1
20260902172023 20 225 0.0 1.6 0.00 0.10 0.00 47 1017.1
20260902171023 20 0.0 0.0 0.00 0.10 0.00 46 1017.1
20260902170022 20 0.0 0.0 0.00 0.10 0.00 45 1017.1
20260902165020 20 68 1.6 3.2 0.00 0.10 0.00 45 1017.1
20260902164022 20 203 0.0 1.6 0.00 0.10 0.00 45 1017.1
20260902163027 21 225 0.0 1.6 0.00 0.10 0.00 44 1016.1
20260902162022 21 68 1.6 3.2 0.00 0.10 0.00 44 1016.9
20260902161017 21 263 1.6 3.2 0.00 0.10 0.00 43 1017.1
20260902160025 21 33 3.2 4.8 0.00 0.10 0.00 43 1016.1
20260902155022 21 170 1.6 3.2 0.00 0.10 0.00 43 1016.1
20260902154038 -17 75 3.2 4.8 0.00 0.10 0.00 1016.1
20260902153017 21 52 3.2 6.4 0.00 0.10 0.00 43 1017.1
20260902152024 22 64 1.6 4.8 0.00 0.10 0.00 42 1017.1
20260902151028 22 60 4.8 8.0 0.00 0.10 0.00 42 1017.1
20260902150044 23 275 1.6 3.2 0.00 0.10 0.00 41 1017.1
20260902145025 23 229 3.2 3.2 0.00 0.10 0.00 41 1017.1
20260902144022 24 219 1.6 3.2 0.00 0.10 0.00 41 1017.1
20260902143021 24 199 1.6 3.2 0.00 0.10 0.00 41 1017.1
20260902142026 24 71 3.2 6.4 0.00 0.10 0.00 41 1017.1
20260902141023 23 140 3.2 4.8 0.00 0.10 0.00 42 1017.1
20260902140026 25 198 3.2 4.8 0.00 0.10 0.00 42 1017.1
20260902135023 23 203 1.6 4.8 0.00 0.10 0.00 43 1017.1
20260902134025 23 68 3.2 6.4 0.00 0.10 0.00 43 1017.1
20260902133028 23 101 3.2 4.8 0.00 0.10 0.00 45 1017.1
20260902132032 22 104 3.2 6.4 0.00 0.10 0.00 45 1017.1